Location: El Carrer d�Abaix
(41.5797°N, 2.1791°E)
Time: 01:32:55
(UTC+00:00)

Cosmos 1340 Rocket - Pass Details

Date: 06 June 2020
Orbit: 530 x 558 km, 81.2° (Epoch: 15 July)

Event Time Altitude Azimuth Distance (km) Brightness Sun altitude
Rises 21:25:13 0° 5° (N) 2,748 7.2 -17.4°
Reaches altitude 10° 21:27:51 10° 21° (NNE) 1,850 5.9 -17.7°
Maximum altitude 21:30:58 21° 71° (ENE) 1,292 4.5 -18.0°
Enters shadow 21:31:40 20° 86° (E) 1,325 4.5 -18.1°
